Location: Miles
(41.4492°N, 81.6087°W)
Time: 03:15:36
(UTC+00:00)

Tiros 1 despin weight - Pass Details

Date: 18 September 2024
Orbit: 573 x 615 km, 48.2° (Epoch: 04 October)

Event Time Altitude Azimuth Distance (km) Brightness Sun altitude
Rises 08:57:46 0° 267° (W) 2,867 - -24.7°
Reaches altitude 10° 09:00:10 10° 275° (W) 1,969 - -24.3°
Exits shadow 09:04:01 41° 330° (NNW) 902 ? -23.7°
Maximum altitude 09:04:28 42° 346° (NNW) 883 ? -23.6°
Drops below altitude 10° 09:08:49 10° 58° (ENE) 1,984 ? -22.9°
Sets 09:11:15 0° 66° (ENE) 2,891 ? -22.4°
